CW6004 Weather Reports


Display with metric or nautical units.
time (UTC)temp
F
wind
direction
speed
MPH
gust
MPH
rain 1hr
in
rain 24hr
in
rain mn
in
humidity
%
barometer
mb
20260508222316 77 268 3.0 15.0 0.00 0.00 0.00 24 1004.6
20260508221821 77 270 3.0 8.0 0.00 0.00 0.00 23 1004.7
20260508221330 77 277 5.0 10.0 0.00 0.00 0.00 22 1004.6
20260508220816 78 277 5.0 10.0 0.00 0.00 0.00 22 1004.7
20260508220323 78 291 5.0 10.0 0.00 0.00 0.00 22 1004.9
20260508215829 79 319 2.0 8.0 0.00 0.00 0.00 24 1005.0
20260508215317 79 280 4.0 8.0 0.00 0.00 0.00 23 1005.0
20260508214822 79 322 2.0 7.0 0.00 0.00 0.00 24 1004.9
20260508214330 78 284 3.0 11.0 0.00 0.00 0.00 23 1005.0
20260508213817 78 339 4.0 12.0 0.00 0.00 0.00 25 1005.1
20260508213342 77 271 6.0 12.0 0.00 0.00 0.00 24 1005.0
20260508212825 77 330 2.0 11.0 0.00 0.00 0.00 26 1005.0
20260508212329 78 282 4.0 11.0 0.00 0.00 0.00 23 1005.2
20260508211822 79 347 3.0 11.0 0.00 0.00 0.00 25 1005.2
20260508211331 78 305 1.0 8.0 0.00 0.00 0.00 26 1005.1
20260508210817 78 288 4.0 8.0 0.00 0.00 0.00 26 1005.0
20260508210325 77 283 2.0 9.0 0.00 0.00 0.00 26 1005.2
20260508205828 78 34 5.0 10.0 0.00 0.00 0.00 25 1005.2
20260508205343 78 337 5.0 10.0 0.00 0.00 0.00 24 1005.1
20260508204825 79 271 3.0 8.0 0.00 0.00 0.00 26 1005.1
20260508204330 79 322 1.0 8.0 0.00 0.00 0.00 28 1005.2
20260508203821 77 315 4.0 8.0 0.00 0.00 0.00 28 1005.2
20260508203325 77 295 2.0 6.0 0.00 0.00 0.00 29 1005.3
20260508202814 77 347 1.0 8.0 0.00 0.00 0.00 28 1005.3
20260508202319 78 325 2.0 9.0 0.00 0.00 0.00 27 1005.4
20260508201825 78 307 2.0 8.0 0.00 0.00 0.00 29 1005.4
20260508201314 79 348 1.0 8.0 0.00 0.00 0.00 27 1005.5
20260508200820 80 286 2.0 9.0 0.00 0.00 0.00 27 1005.5
20260508200327 80 15 3.0 9.0 0.00 0.00 0.00 27 1005.5
20260508195832 80 242 4.0 8.0 0.00 0.00 0.00 26 1005.5
20260508195320 79 290 2.0 11.0 0.00 0.00 0.00 26 1005.5
20260508194828 78 297 3.0 11.0 0.00 0.00 0.00 30 1005.5
20260508194317 76 283 3.0 9.0 0.00 0.00 0.00 30 1005.6
20260508193824 76 325 1.0 4.0 0.00 0.00 0.00 33 1005.6
20260508193332 76 11 1.0 9.0 0.00 0.00 0.00 31 1005.6
20260508192819 77 355 3.0 9.0 0.00 0.00 0.00 30 1005.6
20260508192318 78 293 1.0 4.0 0.00 0.00 0.00 31 1005.6
20260508191824 79 313 0.0 6.0 0.00 0.00 0.00 30 1005.7
20260508191333 79 355 1.0 8.0 0.00 0.00 0.00 31 1005.8
20260508190819 77 349 3.0 12.0 0.00 0.00 0.00 35 1005.8
20260508190325 76 290 5.0 12.0 0.00 0.00 0.00 34 1005.9
20260508185830 76 290 4.0 11.0 0.00 0.00 0.00 35 1005.9
20260508185338 76 307 4.0 10.0 0.00 0.00 0.00 31 1005.9
20260508184814 76 304 5.0 10.0 0.00 0.00 0.00 31 1005.8
20260508184333 76 277 3.0 10.0 0.00 0.00 0.00 31 1005.9
20260508183828 78 289 5.0 10.0 0.00 0.00 0.00 30 1005.8
20260508183314 78 330 4.0 10.0 0.00 0.00 0.00 30 1005.9
20260508182820 78 321 1.0 10.0 0.00 0.00 0.00 31 1006.0
20260508182347 78 317 3.0 10.0 0.00 0.00 0.00 30 1006.0
20260508181850 77 297 3.0 10.0 0.00 0.00 0.00 32 1006.2
20260508181338 76 275 5.0 10.0 0.00 0.00 0.00 28 1006.3
20260508180838 76 273 5.0 12.0 0.00 0.00 0.00 30 1006.3
20260508180343 77 294 3.0 12.0 0.00 0.00 0.00 31 1006.4
20260508175849 78 299 7.0 12.0 0.00 0.00 0.00 29 1006.5
20260508175337 77 346 2.0 8.0 0.00 0.00 0.00 30 1006.4
20260508174855 78 266 5.0 8.0 0.00 0.00 0.00 28 1006.5
20260508174403 77 345 2.0 9.0 0.00 0.00 0.00 30 1006.5
20260508173818 77 323 3.0 9.0 0.00 0.00 0.00 31 1006.6
20260508173316 77 264 1.0 6.0 0.00 0.00 0.00 31 1006.6
20260508172819 77 264 3.0 10.0 0.00 0.00 0.00 30 1006.8
20260508172327 76 237 2.0 10.0 0.00 0.00 0.00 32 1006.8
20260508171824 76 296 2.0 7.0 0.00 0.00 0.00 30 1006.8
20260508171313 77 290 3.0 7.0 0.00 0.00 0.00 28 1006.9
20260508170820 76 266 3.0 5.0 0.00 0.00 0.00 30 1006.9
20260508170327 76 281 2.0 8.0 0.00 0.00 0.00 32 1006.9
20260508165814 75 306 3.0 8.0 0.00 0.00 0.00 30 1007.0
20260508165322 75 263 2.0 9.0 0.00 0.00 0.00 32 1007.0
20260508164829 74 289 4.0 9.0 0.00 0.00 0.00 31 1007.0
20260508164318 74 296 4.0 8.0 0.00 0.00 0.00 32 1007.2
20260508163824 74 295 3.0 5.0 0.00 0.00 0.00 32 1007.2
20260508163314 74 299 3.0 8.0 0.00 0.00 0.00 32 1007.2
20260508162852 73 306 4.0 8.0 0.00 0.00 0.00 31 1007.3
20260508162320 73 286 4.0 8.0 0.00 0.00 0.00 32 1007.2
20260508161821 73 277 2.0 8.0 0.00 0.00 0.00 33 1007.3
20260508161324 73 253 3.0 8.0 0.00 0.00 0.00 32 1007.4
20260508160810 73 276 4.0 8.0 0.00 0.00 0.00 32 1007.5
20260508160331 73 263 3.0 8.0 0.00 0.00 0.00 33 1007.5
20260508155817 73 294 4.0 8.0 0.00 0.00 0.00 32 1007.5
20260508155325 73 275 3.0 8.0 0.00 0.00 0.00 32 1007.5
20260508154812 73 285 3.0 7.0 0.00 0.00 0.00 34 1007.5
20260508154321 73 286 3.0 7.0 0.00 0.00 0.00 35 1007.5
20260508153828 73 291 3.0 7.0 0.00 0.00 0.00 33 1007.5
20260508153316 72 286 3.0 5.0 0.00 0.00 0.00 33 1007.5
20260508152823 72 300 3.0 5.0 0.00 0.00 0.00 34 1007.5
20260508152330 72 296 2.0 4.0 0.00 0.00 0.00 37 1007.6
20260508151825 72 287 1.0 4.0 0.00 0.00 0.00 36 1007.6
20260508151336 71 282 2.0 4.0 0.00 0.00 0.00 34 1007.6
20260508150814 71 262 2.0 3.0 0.00 0.00 0.00 36 1007.7
20260508150322 70 279 2.0 3.0 0.00 0.00 0.00 37 1007.7
20260508145818 70 243 0.0 3.0 0.00 0.00 0.00 38 1007.7
20260508145345 69 286 1.0 2.0 0.00 0.00 0.00 38 1007.8
20260508144842 68 273 0.0 2.0 0.00 0.00 0.00 42 1007.9
20260508144318 67 287 0.0 4.0 0.00 0.00 0.00 40 1007.9
20260508143825 67 281 2.0 4.0 0.00 0.00 0.00 39 1008.0
20260508143333 66 263 1.0 4.0 0.00 0.00 0.00 43 1008.0
20260508142829 65 290 1.0 4.0 0.00 0.00 0.00 45 1007.9
20260508142317 64 186 2.0 4.0 0.00 0.00 0.00 43 1007.9
20260508141823 63 232 1.0 4.0 0.00 0.00 0.00 47 1008.0
20260508141313 62 238 2.0 4.0 0.00 0.00 0.00 46 1008.1
20260508140819 61 223 0.0 0.0 0.00 0.00 0.00 52 1008.1
20260508140328 61 318 0.0 0.0 0.00 0.00 0.00 52 1008.2
20260508135815 60 254 0.0 0.0 0.00 0.00 0.00 54 1008.1
20260508135324 59 254 0.0 0.0 0.00 0.00 0.00 52 1008.1
20260508134830 59 251 0.0 0.0 0.00 0.00 0.00 53 1008.1
20260508134318 59 232 0.0 0.0 0.00 0.00 0.00 53 1008.1
20260508133823 58 273 0.0 0.0 0.00 0.00 0.00 58 1008.1
20260508133314 58 273 0.0 0.0 0.00 0.00 0.00 62 1008.0
20260508132818 57 273 0.0 0.0 0.00 0.00 0.00 64 1008.0
20260508132344 57 273 0.0 0.0 0.00 0.00 0.00 63 1007.9
20260508131840 57 273 0.0 0.0 0.00 0.00 0.00 65 1007.9
20260508131326 56 273 0.0 0.0 0.00 0.00 0.00 64 1008.0
20260508130825 55 273 0.0 2.0 0.00 0.00 0.00 65 1007.9
20260508130332 55 273 0.0 2.0 0.00 0.00 0.00 67 1007.9
20260508125816 54 273 0.0 3.0 0.00 0.00 0.00 67 1008.0
20260508125324 54 267 0.0 3.0 0.00 0.00 0.00 69 1008.0
20260508124811 53 342 0.0 0.0 0.00 0.00 0.00 72 1008.0
20260508124319 52 342 0.0 1.0 0.00 0.00 0.00 73 1007.9
20260508123825 52 342 0.0 3.0 0.00 0.00 0.00 74 1007.8
20260508123315 51 284 1.0 3.0 0.00 0.00 0.00 73 1007.8
20260508122821 50 274 0.0 2.0 0.00 0.00 0.00 74 1007.6
20260508122331 50 305 0.0 0.0 0.00 0.00 0.00 75 1007.5
20260508121817 50 305 0.0 0.0 0.00 0.00 0.00 72 1007.5
20260508121327 50 305 0.0 0.0 0.00 0.00 0.00 72 1007.4
20260508120813 50 305 0.0 0.0 0.00 0.00 0.00 71 1007.3
20260508120320 50 305 0.0 0.0 0.00 0.00 0.00 70 1007.3
20260508115826 50 305 0.0 0.0 0.00 0.00 0.00 70 1007.3
20260508115317 50 305 0.0 0.0 0.00 0.00 0.00 70 1007.2
20260508114823 50 305 0.0 0.0 0.00 0.00 0.00 68 1007.1
20260508114331 50 305 0.0 0.0 0.00 0.00 0.00 68 1007.1
20260508113816 50 305 0.0 0.0 0.00 0.00 0.00 68 1007.2
20260508113325 50 305 0.0 0.0 0.00 0.00 0.00 69 1007.2
20260508112812 51 305 0.0 0.0 0.00 0.00 0.00 68 1007.3
20260508112321 51 305 0.0 0.0 0.00 0.00 0.00 67 1007.1
20260508111823 51 305 0.0 0.0 0.00 0.00 0.00 66 1007.1
20260508111312 52 305 0.0 0.0 0.00 0.00 0.00 64 1007.0
20260508110818 52 305 0.0 0.0 0.00 0.00 0.00 65 1007.0
20260508110326 53 305 0.0 0.0 0.00 0.00 0.00 63 1007.1
20260508105812 53 305 0.0 0.0 0.00 0.00 0.00 64 1007.1
20260508105314 53 191 0.0 3.0 0.00 0.00 0.00 61 1007.1
20260508104820 53 191 0.0 3.0 0.00 0.00 0.00 59 1007.0
20260508104326 54 180 2.0 3.0 0.00 0.00 0.00 62 1006.9
20260508103816 54 169 0.0 2.0 0.00 0.00 0.00 60 1007.0
20260508103320 54 176 0.0 4.0 0.00 0.00 0.00 58 1007.1
20260508102811 54 161 1.0 5.0 0.00 0.00 0.00 57 1007.1
20260508102316 54 155 4.0 5.0 0.00 0.00 0.00 55 1007.2
20260508101823 54 126 0.0 2.0 0.00 0.00 0.00 54 1007.4
20260508101332 54 155 0.0 2.0 0.00 0.00 0.00 52 1007.6
20260508100816 54 9 0.0 3.0 0.00 0.00 0.00 54 1007.6
20260508100323 54 9 1.0 7.0 0.00 0.00 0.00 53 1007.5
20260508095830 54 24 1.0 8.0 0.00 0.00 0.00 52 1007.3
20260508095319 54 158 3.0 8.0 0.00 0.00 0.00 52 1007.1
20260508094826 54 126 4.0 8.0 0.00 0.00 0.00 53 1007.1
20260508094314 54 206 4.0 8.0 0.00 0.00 0.00 54 1007.2
20260508093819 53 177 5.0 6.0 0.00 0.00 0.00 55 1007.3
20260508093328 53 163 4.0 6.0 0.00 0.00 0.00 57 1007.5
20260508092815 52 195 3.0 4.0 0.00 0.00 0.00 60 1007.8
20260508092340 52 142 3.0 5.0 0.00 0.00 0.00 61 1007.8
20260508091822 52 180 2.0 3.0 0.00 0.00 0.00 62 1008.0
20260508091338 52 296 0.0 0.0 0.00 0.00 0.00 58 1008.3
20260508090837 52 296 0.0 1.0 0.00 0.00 0.00 57 1008.3
20260508090339 52 296 0.0 2.0 0.00 0.00 0.00 59 1008.6
20260508085844 53 296 0.0 2.0 0.00 0.00 0.00 59 1008.4
20260508085351 52 342 0.0 0.0 0.00 0.00 0.00 54 1008.0
20260508084855 52 9 0.0 0.0 0.00 0.00 0.00 56 1007.8
20260508084355 52 9 0.0 0.0 0.00 0.00 0.00 61 1007.9
20260508083835 52 360 0.0 2.0 0.00 0.00 0.00 63 1007.8
20260508083400 52 9 0.0 2.0 0.00 0.00 0.00 60 1007.9
20260508082836 52 288 0.0 0.0 0.00 0.00 0.00 60 1008.1
20260508082343 52 288 0.0 0.0 0.00 0.00 0.00 61 1008.1
20260508081847 52 288 0.0 0.0 0.00 0.00 0.00 63 1008.1
20260508081339 52 288 0.0 0.0 0.00 0.00 0.00 65 1007.9
20260508080841 52 288 0.0 0.0 0.00 0.00 0.00 64 1007.8
20260508080347 52 288 0.0 0.0 0.00 0.00 0.00 63 1007.7
20260508075832 52 288 0.0 0.0 0.00 0.00 0.00 62 1007.7
20260508075339 52 288 0.0 0.0 0.00 0.00 0.00 62 1007.8
20260508074823 52 288 0.0 0.0 0.00 0.00 0.00 62 1007.9
20260508074313 53 288 0.0 0.0 0.00 0.00 0.00 62 1007.9
20260508073819 53 288 0.0 0.0 0.00 0.00 0.00 62 1008.0
20260508073327 53 288 0.0 0.0 0.00 0.00 0.00 62 1008.0
20260508072813 53 288 0.0 0.0 0.00 0.00 0.00 61 1008.1
20260508072321 53 288 0.0 0.0 0.00 0.00 0.00 61 1008.2
20260508071832 53 288 0.0 0.0 0.00 0.00 0.00 60 1008.3
20260508071324 53 288 0.0 0.0 0.00 0.00 0.00 59 1008.3
20260508070818 53 288 0.0 0.0 0.00 0.00 0.00 59 1008.3
20260508070324 53 288 0.0 0.0 0.00 0.00 0.00 60 1008.4
20260508065830 53 288 0.0 0.0 0.00 0.00 0.00 59 1008.5
20260508065318 54 288 0.0 0.0 0.00 0.00 0.00 58 1008.4
20260508064825 54 288 0.0 0.0 0.00 0.00 0.00 57 1008.4
20260508064313 54 288 0.0 0.0 0.00 0.00 0.00 56 1008.3
20260508063820 54 288 0.0 0.0 0.00 0.00 0.00 58 1008.3
20260508063330 54 288 0.0 0.0 0.00 0.00 0.00 53 1008.3
20260508062817 54 288 0.0 0.0 0.00 0.00 0.00 50 1008.3
20260508062326 54 288 0.0 0.0 0.00 0.00 0.00 50 1008.3
20260508061813 54 288 0.0 0.0 0.00 0.00 0.00 48 1008.3
20260508061323 55 288 0.0 0.0 0.00 0.00 0.00 47 1008.2
20260508060829 55 288 0.0 0.0 0.00 0.00 0.00 47 1008.2
20260508060316 55 288 0.0 0.0 0.00 0.00 0.00 47 1008.2
20260508055823 55 288 0.0 0.0 0.00 0.00 0.00 48 1008.2
20260508055332 55 288 0.0 0.0 0.00 0.00 0.00 48 1008.2
20260508054819 55 288 0.0 0.0 0.00 0.00 0.00 50 1008.2
20260508054328 55 288 0.0 0.0 0.00 0.00 0.00 50 1008.1
20260508053814 55 288 0.0 0.0 0.00 0.00 0.00 46 1008.0
20260508053313 56 288 0.0 0.0 0.00 0.00 0.00 43 1007.9
20260508052815 56 288 0.0 0.0 0.00 0.00 0.00 45 1007.8
20260508052317 56 288 0.0 0.0 0.00 0.00 0.00 43 1007.8
20260508051824 56 288 0.0 0.0 0.00 0.00 0.00 45 1007.9
20260508051327 56 288 0.0 0.0 0.00 0.00 0.00 45 1007.9
20260508050813 56 346 0.0 0.0 0.00 0.00 0.00 47 1007.8
20260508050319 56 346 0.0 0.0 0.00 0.00 0.00 46 1007.8
20260508045825 56 346 0.0 0.0 0.00 0.00 0.00 46 1007.9
20260508045313 56 346 0.0 0.0 0.00 0.00 0.00 46 1007.9
20260508044820 56 346 0.0 0.0 0.00 0.00 0.00 45 1007.8
20260508044325 57 346 0.0 3.0 0.00 0.00 0.00 46 1007.8
20260508043816 57 346 0.0 3.0 0.00 0.00 0.00 44 1007.7
20260508043321 57 250 0.0 0.0 0.00 0.00 0.00 43 1007.7
20260508042848 57 250 0.0 0.0 0.00 0.00 0.00 45 1007.8
20260508042316 57 250 0.0 0.0 0.00 0.00 0.00 43 1007.8
20260508041823 57 250 0.0 0.0 0.00 0.00 0.00 42 1007.7
20260508041330 57 250 0.0 0.0 0.00 0.00 0.00 42 1007.7
20260508040816 57 250 0.0 0.0 0.00 0.00 0.00 42 1007.8
20260508040321 57 250 0.0 0.0 0.00 0.00 0.00 43 1007.8
20260508035826 57 250 0.0 0.0 0.00 0.00 0.00 44 1007.7
20260508035315 57 250 0.0 0.0 0.00 0.00 0.00 41 1007.8
20260508034817 58 250 0.0 1.0 0.00 0.00 0.00 42 1007.8
20260508034323 58 250 0.0 3.0 0.00 0.00 0.00 42 1007.8
20260508033826 58 250 0.0 3.0 0.00 0.00 0.00 41 1007.8
20260508033324 59 220 1.0 2.0 0.00 0.00 0.00 42 1007.7
20260508032829 59 175 0.0 0.0 0.00 0.00 0.00 38 1007.7
20260508032318 59 178 0.0 0.0 0.00 0.00 0.00 40 1007.5
20260508031812 59 178 0.0 0.0 0.00 0.00 0.00 41 1007.6
20260508031321 58 24 0.0 0.0 0.00 0.00 0.00 40 1007.6
20260508030825 58 24 0.0 1.0 0.00 0.00 0.00 39 1007.6
20260508030332 58 22 0.0 3.0 0.00 0.00 0.00 41 1007.6
20260508025818 58 179 0.0 3.0 0.00 0.00 0.00 44 1007.7
20260508025327 58 179 1.0 2.0 0.00 0.00 0.00 43 1007.6
20260508024832 58 178 0.0 0.0 0.00 0.00 0.00 44 1007.6
20260508024320 59 177 0.0 0.0 0.00 0.00 0.00 41 1007.6
20260508023827 59 177 0.0 0.0 0.00 0.00 0.00 42 1007.6
20260508023334 59 178 0.0 0.0 0.00 0.00 0.00 42 1007.5
20260508022819 59 177 0.0 0.0 0.00 0.00 0.00 39 1007.5
20260508022335 59 178 0.0 2.0 0.00 0.00 0.00 39 1007.5
20260508021840 59 177 0.0 2.0 0.00 0.00 0.00 41 1007.3
20260508021407 59 80 0.0 0.0 0.00 0.00 0.00 37 1007.3
20260508020838 59 43 0.0 0.0 0.00 0.00 0.00 36 1007.1
20260508020347 60 43 0.0 0.0 0.00 0.00 0.00 35 1007.1
20260508015852 60 43 0.0 0.0 0.00 0.00 0.00 35 1007.0
20260508015340 60 43 0.0 0.0 0.00 0.00 0.00 36 1006.9
20260508014845 60 43 0.0 0.0 0.00 0.00 0.00 35 1006.9
20260508014356 61 43 0.0 0.0 0.00 0.00 0.00 35 1007.0
20260508013843 61 43 0.0 0.0 0.00 0.00 0.00 34 1007.0
20260508013350 61 43 0.0 2.0 0.00 0.00 0.00 34 1006.9
20260508012836 62 43 0.0 2.0 0.00 0.00 0.00 34 1006.9
20260508012325 62 355 0.0 2.0 0.00 0.00 0.00 34 1006.8
20260508011829 63 344 1.0 2.0 0.00 0.00 0.00 32 1006.7
20260508011318 63 13 0.0 2.0 0.00 0.00 0.00 32 1006.7
20260508010825 64 9 0.0 0.0 0.00 0.00 0.00 32 1006.7
20260508010316 64 9 0.0 2.0 0.00 0.00 0.00 32 1006.7
20260508005830 65 19 0.0 2.0 0.00 0.00 0.00 31 1006.7
20260508005321 65 35 0.0 2.0 0.00 0.00 0.00 30 1006.8
20260508004824 65 336 0.0 2.0 0.00 0.00 0.00 31 1006.8
20260508004320 66 355 0.0 1.0 0.00 0.00 0.00 29 1006.8
20260508003826 66 355 0.0 1.0 0.00 0.00 0.00 28 1006.8
20260508003315 67 11 0.0 2.0 0.00 0.00 0.00 28 1006.8
20260508002822 67 11 1.0 2.0 0.00 0.00 0.00 27 1006.7
20260508002350 67 355 0.0 3.0 0.00 0.00 0.00 27 1006.7
20260508001825 68 17 2.0 3.0 0.00 0.00 0.00 26 1006.8
20260508001331 68 355 1.0 3.0 0.00 0.00 0.00 26 1006.7
20260508000816 68 15 0.0 3.0 0.00 0.00 0.00 28 1006.8
20260508000334 68 38 1.0 3.0 0.00 0.00 0.00 26 1006.8
20260507235821 68 360 1.0 4.0 0.00 0.00 0.00 26 1006.8
20260507235323 68 46 0.0 4.0 0.00 0.00 0.00 25 1006.8
20260507234825 69 28 1.0 2.0 0.00 0.00 0.00 26 1006.8
20260507234315 69 13 0.0 5.0 0.00 0.00 0.00 25 1006.9
20260507233822 69 360 0.0 5.0 0.00 0.00 0.00 25 1006.9
20260507233346 70 319 0.0 6.0 0.00 0.00 0.00 26 1006.9
20260507232831 70 14 0.0 6.0 0.00 0.00 0.00 25 1007.0
20260507232331 71 285 2.0 5.0 0.00 0.00 0.00 24 1007.0
20260507231818 71 287 1.0 6.0 0.00 0.00 0.00 26 1006.9
20260507231325 71 303 2.0 6.0 0.00 0.00 0.00 25 1006.8
20260507230830 71 265 1.0 6.0 0.00 0.00 0.00 26 1006.8
20260507230328 71 360 2.0 4.0 0.00 0.00 0.00 25 1006.8
20260507225828 70 285 1.0 4.0 0.00 0.00 0.00 24 1006.9
20260507225354 70 284 1.0 4.0 0.00 0.00 0.00 26 1006.8
20260507224818 71 35 3.0 4.0 0.00 0.00 0.00 25 1006.9
20260507224326 71 294 2.0 3.0 0.00 0.00 0.00 25 1006.8
20260507223832 71 336 0.0 3.0 0.00 0.00 0.00 29 1006.8
20260507223337 70 5 1.0 3.0 0.00 0.00 0.00 23 1006.7
20260507222827 70 262 2.0 3.0 0.00 0.00 0.00 26 1006.9